STARLINK-33831, 63595

Orbit data source: Space-Track

STARLINK-33831, 63595 is a payload satellite owned by SpaceX/Seattle (US) in LEO that was launched on Mon, 14 Apr 2025 UTC via an FALCON 9 launch vehicle from the Air Force Eastern Test Range (AFETR). Payload-class satellites include a variety of spacecraft equipped with specific instruments for various scientific and technological missions. These include communications satellites like Starlink; space stations such as the ISS; scientific satellites like the Hubble; Earth observation satellites from companies like Planet Labs, Umbra, and HawkEye 360; GPS; miniature CubeSats for education and research; and military/defense satellites.

Loading next visibility...
Identifier
63595, 2025-076AC
Orbit
LEO
Last TLE update
9 hours ago
Origin
Manufacturer
SpaceX/Seattle
Mission
Operational Commercial Communications
Bus & Motor
STARLINK V2MO, Unknown motor
Mass
575 kg wet, ~530 kg dry
Launch date (UTC)
2025-04-14 (3 months ago)
Launch vehicle
FALCON 9
Launch site
Air Force Eastern Test Range (AFETR)
Object type
Payload
Rocket body
Debris
Shape & HBR
Box + 1 Pan, 29 m
Radar Cross Section
41.120 m², Large (>1 m²)

Expand to show TLE details & history

TLE from 9 hours ago
0 STARLINK-33831
1 63595U 25076AC  25187.58826135  .00015864  00000-0  58457-3 0  9995
2 63595  42.9926 271.3632 0000470  36.5861 323.5022 15.27590789 14191
Epoch: 2025-07-06T14:07Z
TLE epoch observation values (Epoch: 2025-07-06T14:07:05.78Z)
Latitude
-0.00006°
Longitude
134.77925°
Altitude
482.532 km
Speed
7.626 km/s
True Right ascension
18h 05m 27s
True Declination
0° 00' 00"
Sunlit
Object was in full shadow at epoch
Visualization orbit readout
Latitude
-6.21645°
Longitude
-40.58955°
Altitude
484.05 km
Speed
7.625 km/s
Apparent Right ascension
03h 32m 34s
Apparent Declination
-36° 11' 17"
Sunlit
Object is in daylight
Visualization observer readout
Local Sidereal Time
10:47:28
Azimuth
249.445° W
Elevation
-35.279°
Doppler factor
1
Orbital elements
Apogee altitude
485.286 km
Perigee altitude
484.641 km
Semi-major axis
6,863.1 km
Eccentricity
0.00005
Inclination
42.9926°
RAAN
271.3632°
Arg. of periapsis
36.5861°
True anomaly
Unknown
Mean anomaly
323.5022°
Eccentric anomaly
Unknown
Mean motion
3.81736 °/min
Orbital period
94.31 mins
BSTAR
0.00058457
Loading maneuver chart data...
Loading SW <> Apogee altitude chart data...
Loading historical data...
Loading historical data...
Loading historical data...
Loading historical data...
Loading historical data...
Loading historical data...
Loading historical data...

STARLINK-33831 Visibility forecast

Observer location: undefined°, undefined°

Span
Click to sort rows by Start time (UTC) header in descending order
Start Az.
Max El. time (UTC)
Max El. Az.
Max El.
End time (UTC)
End Az.
5 mins2025-07-07 09:11:16.737Z217.299° SW2025-07-07 09:13:16.737Z141.326° SSE37.302°2025-07-07 09:16:16.737Z79.658° E
5 mins2025-07-07 10:50:16.737Z280.902° WNW2025-07-07 10:52:16.737Z11.653° NNE40.062°2025-07-07 10:55:16.737Z70.074° E
5 mins2025-07-07 12:29:16.737Z297.303° NW2025-07-07 12:31:16.737Z11.538° NNE40.382°2025-07-07 12:34:16.737Z86.964° E
5 mins2025-07-07 14:08:16.737Z272.111° WNW2025-07-07 14:10:16.737Z200.9° SSW38.232°2025-07-07 14:13:16.737Z131.406° SE
|